STARLINK-35791

Last updated on Fri Dec 19 2025 00:02:08 GMT+0000 (Coordinated Universal Time)

1 66896U 25283U 25352.58336806 -.01508916 00000+0 -97989-2 0 9996 2 66896 53.1552 44.3664 0001140 67.4360 90.0020 15.78219499 3365
UTC large
Height (km)
Speed (km/s)
/
Latitude / Longitude
Inclination (degrees)
Orbital Period (minutes)
Azimuth
Elevation
Range (km)
Doppler Factor

Next 0 passes for location: London (51.5072 / 0.1276)

Sorry there are no passes over London.